Погода в Коротыче

Украина / Харьковская область     49°56′47″N   36°02′25″E
темп.,
°C
ветер,
м/с
пор.,
м/с
влажн.,
%
обл.,
%
осадки,
мм/ч
давл.,
гПа
погр.,
м
23 апреля, пт
пт2300:00+11ю3670100 0.0 1020149
03:00+10ююз3973100 0.0 1019223
06:00+8ю388613 0.1 1019192
09:00+12ююз696953 0.1 1019688
12:00+16ююз79535 0.1 10171568
15:00+16ююз71052100 0.9 10161863
18:00+14ююз7116296 0.9 10141034
21:00+10юз61189100 2.6 1015689
24 апреля, сб
сб2400:00+8зсз4691100 2.9 1014415
03:00+5сз61192100 6.2 1015730
06:00+5зюз37877 0.8 1015533
09:00+7з696921 0.8 1015925
12:00+9з8105195 0.4 10152026
15:00+8з10125591 0.8 10161939
18:00+7зсз811501 0.1 10172202
21:00+4з511605 0.1 1019634
25 апреля, вс
вс2500:00+3з511680 0.0 1020425
03:00+2з49750 0.0 1021267
06:00+1зюз377532 0.0 1021207
09:00+6зюз45510 0.0 1021803
12:00+10юз56345 0.0 10201988
15:00+11юз684094 0.0 10182162
18:00+11юз585229 0.0 10161544
21:00+8з3774100 0.1 1017385
26 апреля, пн
пн2600:00+4сз4593100 1.6 1017539
03:00+3св129090 6.6 1017270
06:00+3з1189100 0.0 101758
09:00+6ссз2364100 0.0 1016939
12:00+8з2350100 0.1 10161579
15:00+9з444899 0.1 10151676
18:00+8з5752100 0.4 10141431
21:00+5з35682 0.4 1015139
27 апреля, вт
вт2700:00+3зюз377628 0.0 1015169
03:00+2з388383 0.0 1015230
06:00+1зсз25857 0.0 1015147
09:00+6з3560100 0.0 1016839
12:00+8з5743100 0.1 10152138
15:00+8зюз5641100 0.1 10141993
18:00+7зюз555946 0.3 1015939
21:00+4юз35785 0.4 1016111